Time,TemperatureF,DewpointF,PressureIn,WindDirection,WindDirectionDegrees,WindSpeedMPH,WindSpeedGustMPH,Humidity,HourlyPrecipIn,Conditions,Clouds,dailyrainin,SoftwareType,DateUTC
2013-02-21 00:00:00,16.9,4.9,30.31,NNE,20,8.9,-999.0,58,0.00,,,0.00,SSEC-RIG,2013-02-21 06:00:00,
2013-02-21 00:10:00,16.9,5.3,30.31,NNE,15,5.1,-999.0,59,0.00,,,0.00,SSEC-RIG,2013-02-21 06:10:00,
2013-02-21 00:15:00,16.9,5.2,30.31,NNE,24,7.8,-999.0,59,0.00,,,0.00,SSEC-RIG,2013-02-21 06:15:00,
2013-02-21 00:25:00,16.6,4.9,30.32,NNE,25,9.0,-999.0,58,0.00,,,0.00,SSEC-RIG,2013-02-21 06:25:00,
2013-02-21 00:30:00,16.3,4.6,30.32,NNE,25,10.1,-999.0,58,0.00,,,0.00,SSEC-RIG,2013-02-21 06:30:00,
2013-02-21 00:35:00,16.2,4.6,30.32,NNE,28,10.1,-999.0,59,0.00,,,0.00,SSEC-RIG,2013-02-21 06:35:00,
2013-02-21 00:40:00,16.0,4.8,30.32,NNE,31,10.1,-999.0,60,0.00,,,0.00,SSEC-RIG,2013-02-21 06:40:00,
2013-02-21 00:45:00,15.9,4.8,30.32,NE,36,10.3,-999.0,60,0.00,,,0.00,SSEC-RIG,2013-02-21 06:45:00,
2013-02-21 00:50:00,15.9,4.7,30.32,NE,36,10.1,-999.0,60,0.00,,,0.00,SSEC-RIG,2013-02-21 06:50:00,
2013-02-21 01:00:00,15.6,4.8,30.32,NE,41,9.1,-999.0,61,0.00,,,0.00,SSEC-RIG,2013-02-21 07:00:00,
2013-02-21 01:05:00,15.5,4.7,30.32,NE,39,9.3,-999.0,61,0.00,,,0.00,SSEC-RIG,2013-02-21 07:05:00,
2013-02-21 01:10:00,15.5,4.7,30.32,NE,41,9.2,-999.0,61,0.00,,,0.00,SSEC-RIG,2013-02-21 07:10:00,
2013-02-21 01:15:00,15.4,4.7,30.32,NE,43,9.4,-999.0,61,0.00,,,0.00,SSEC-RIG,2013-02-21 07:15:00,
2013-02-21 01:20:00,15.2,4.6,30.31,NE,40,11.7,-999.0,61,0.00,,,0.00,SSEC-RIG,2013-02-21 07:20:00,
2013-02-21 01:25:00,15.1,4.6,30.31,NE,40,10.5,-999.0,62,0.00,,,0.00,SSEC-RIG,2013-02-21 07:25:00,
2013-02-21 01:30:00,15.0,4.7,30.31,NE,41,9.6,-999.0,62,0.00,,,0.00,SSEC-RIG,2013-02-21 07:30:00,
2013-02-21 01:35:00,14.9,4.6,30.32,NE,43,11.0,-999.0,62,0.00,,,0.00,SSEC-RIG,2013-02-21 07:35:00,
2013-02-21 01:40:00,14.9,4.7,30.32,NE,45,9.3,-999.0,62,0.00,,,0.00,SSEC-RIG,2013-02-21 07:40:00,
2013-02-21 01:45:00,14.9,4.9,30.32,NE,50,7.8,-999.0,63,0.00,,,0.00,SSEC-RIG,2013-02-21 07:45:00,
2013-02-21 01:50:00,14.8,4.7,30.32,NE,56,8.3,-999.0,63,0.00,,,0.00,SSEC-RIG,2013-02-21 07:50:00,
2013-02-21 01:55:00,14.7,4.7,30.32,NE,54,9.7,-999.0,63,0.00,,,0.00,SSEC-RIG,2013-02-21 07:55:00,
2013-02-21 02:00:00,14.5,4.6,30.32,NE,56,8.7,-999.0,63,0.00,,,0.00,SSEC-RIG,2013-02-21 08:00:00,
2013-02-21 02:05:00,14.4,4.5,30.32,NE,56,11.1,-999.0,63,0.00,,,0.00,SSEC-RIG,2013-02-21 08:05:00,
2013-02-21 02:10:00,14.3,4.6,30.32,NE,56,10.2,-999.0,64,0.00,,,0.00,SSEC-RIG,2013-02-21 08:10:00,
2013-02-21 02:15:00,14.3,4.7,30.32,NE,54,8.4,-999.0,64,0.00,,,0.00,SSEC-RIG,2013-02-21 08:15:00,
2013-02-21 02:20:00,14.2,4.6,30.31,NE,55,11.4,-999.0,64,0.00,,,0.00,SSEC-RIG,2013-02-21 08:20:00,
2013-02-21 02:25:00,14.1,4.6,30.31,NE,54,10.0,-999.0,64,0.00,,,0.00,SSEC-RIG,2013-02-21 08:25:00,
2013-02-21 02:30:00,13.9,4.5,30.31,NE,54,11.7,-999.0,65,0.00,,,0.00,SSEC-RIG,2013-02-21 08:30:00,
2013-02-21 02:35:00,13.9,4.6,30.31,NE,55,9.4,-999.0,65,0.00,,,0.00,SSEC-RIG,2013-02-21 08:35:00,
2013-02-21 02:40:00,13.8,4.7,30.31,NE,52,7.1,-999.0,66,0.00,,,0.00,SSEC-RIG,2013-02-21 08:40:00,
2013-02-21 02:45:00,13.7,4.7,30.32,ENE,57,7.5,-999.0,66,0.00,,,0.00,SSEC-RIG,2013-02-21 08:45:00,
2013-02-21 02:50:00,13.6,4.7,30.32,NE,53,6.8,-999.0,66,0.00,,,0.00,SSEC-RIG,2013-02-21 08:50:00,
2013-02-21 02:55:00,13.5,4.6,30.31,NE,53,8.7,-999.0,66,0.00,,,0.00,SSEC-RIG,2013-02-21 08:55:00,
2013-02-21 03:00:00,13.2,4.4,30.31,ENE,58,12.7,-999.0,67,0.00,,,0.00,SSEC-RIG,2013-02-21 09:00:00,
2013-02-21 03:05:00,13.0,4.4,30.31,ENE,59,12.9,-999.0,67,0.00,,,0.00,SSEC-RIG,2013-02-21 09:05:00,
2013-02-21 03:10:00,12.9,4.4,30.32,ENE,61,12.1,-999.0,67,0.00,,,0.00,SSEC-RIG,2013-02-21 09:10:00,
2013-02-21 03:20:00,13.0,4.5,30.32,ENE,63,10.1,-999.0,67,0.00,,,0.00,SSEC-RIG,2013-02-21 09:20:00,
2013-02-21 03:25:00,12.8,4.3,30.32,ENE,61,11.3,16.4,67,0.00,,,0.00,SSEC-RIG,2013-02-21 09:25:00,
2013-02-21 03:30:00,12.7,4.3,30.33,ENE,64,10.9,-999.0,67,0.00,,,0.00,SSEC-RIG,2013-02-21 09:30:00,
2013-02-21 03:35:00,12.7,4.2,30.33,ENE,61,11.0,-999.0,67,0.00,,,0.00,SSEC-RIG,2013-02-21 09:35:00,
2013-02-21 03:45:00,12.4,4.2,30.33,NE,55,10.9,-999.0,68,0.00,,,0.00,SSEC-RIG,2013-02-21 09:45:00,
2013-02-21 03:50:00,12.6,4.5,30.33,NE,50,6.2,-999.0,69,0.00,,,0.00,SSEC-RIG,2013-02-21 09:50:00,
2013-02-21 03:55:00,12.6,4.6,30.34,NE,54,5.3,-999.0,69,0.00,,,0.00,SSEC-RIG,2013-02-21 09:55:00,
2013-02-21 04:00:00,12.5,4.4,30.34,NE,50,6.9,-999.0,69,0.00,,,0.00,SSEC-RIG,2013-02-21 10:00:00,
2013-02-21 04:05:00,12.4,4.4,30.34,NE,47,7.8,-999.0,69,0.00,,,0.00,SSEC-RIG,2013-02-21 10:05:00,
2013-02-21 04:10:00,12.3,4.3,30.34,NE,47,8.0,-999.0,69,0.00,,,0.00,SSEC-RIG,2013-02-21 10:10:00,
2013-02-21 04:15:00,12.3,4.4,30.34,NE,41,7.9,-999.0,69,0.00,,,0.00,SSEC-RIG,2013-02-21 10:15:00,
2013-02-21 04:20:00,12.2,4.4,30.34,NE,39,8.3,-999.0,69,0.00,,,0.00,SSEC-RIG,2013-02-21 10:20:00,
2013-02-21 04:25:00,12.0,4.5,30.35,NNE,32,6.1,-999.0,70,0.00,,,0.00,SSEC-RIG,2013-02-21 10:25:00,
2013-02-21 04:30:00,12.0,4.6,30.35,NNE,28,5.9,-999.0,71,0.00,,,0.00,SSEC-RIG,2013-02-21 10:30:00,
2013-02-21 04:40:00,11.7,4.3,30.35,NNE,21,6.1,-999.0,71,0.00,,,0.00,SSEC-RIG,2013-02-21 10:40:00,
2013-02-21 04:45:00,11.6,4.3,30.35,NNE,32,6.6,-999.0,71,0.00,,,0.00,SSEC-RIG,2013-02-21 10:45:00,
2013-02-21 04:50:00,11.5,4.4,30.34,NE,35,6.5,-999.0,71,0.00,,,0.00,SSEC-RIG,2013-02-21 10:50:00,
2013-02-21 04:55:00,11.5,4.4,30.34,NNE,31,6.5,-999.0,71,0.00,,,0.00,SSEC-RIG,2013-02-21 10:55:00,
2013-02-21 05:00:00,11.4,4.4,30.34,NNE,32,7.0,-999.0,72,0.00,,,0.00,SSEC-RIG,2013-02-21 11:00:00,
2013-02-21 05:05:00,11.3,4.3,30.34,NNE,33,7.5,-999.0,72,0.00,,,0.00,SSEC-RIG,2013-02-21 11:05:00,
2013-02-21 05:10:00,11.3,4.3,30.34,NE,34,7.4,-999.0,72,0.00,,,0.00,SSEC-RIG,2013-02-21 11:10:00,
2013-02-21 05:15:00,11.1,4.3,30.33,NE,35,8.8,-999.0,72,0.00,,,0.00,SSEC-RIG,2013-02-21 11:15:00,
2013-02-21 05:20:00,11.0,4.3,30.33,NE,37,9.7,-999.0,73,0.00,,,0.00,SSEC-RIG,2013-02-21 11:20:00,
2013-02-21 05:25:00,11.0,4.3,30.33,NE,39,9.9,-999.0,73,0.00,,,0.00,SSEC-RIG,2013-02-21 11:25:00,
2013-02-21 05:30:00,11.0,4.3,30.32,NE,39,11.6,-999.0,73,0.00,,,0.00,SSEC-RIG,2013-02-21 11:30:00,
2013-02-21 05:35:00,10.8,4.0,30.32,NE,40,12.3,-999.0,73,0.00,,,0.00,SSEC-RIG,2013-02-21 11:35:00,
2013-02-21 05:40:00,10.7,4.1,30.31,NE,43,11.5,16.4,73,0.00,,,0.00,SSEC-RIG,2013-02-21 11:40:00,
2013-02-21 05:45:00,10.5,3.8,30.30,NE,46,15.2,18.4,73,0.00,,,0.00,SSEC-RIG,2013-02-21 11:45:00,
2013-02-21 05:50:00,10.3,3.7,30.29,NE,47,16.4,20.9,73,0.00,,,0.00,SSEC-RIG,2013-02-21 11:50:00,
2013-02-21 05:55:00,10.3,3.6,30.28,NE,47,16.6,19.8,73,0.00,,,0.00,SSEC-RIG,2013-02-21 11:55:00,
2013-02-21 06:00:00,10.2,3.4,30.27,NE,48,16.4,19.6,72,0.00,,,0.00,SSEC-RIG,2013-02-21 12:00:00,
2013-02-21 06:05:00,10.1,3.3,30.26,NE,52,16.1,21.4,72,0.00,,,0.00,SSEC-RIG,2013-02-21 12:05:00,
2013-02-21 06:10:00,10.1,3.2,30.26,NE,50,11.2,17.2,72,0.00,,,0.00,SSEC-RIG,2013-02-21 12:10:00,
2013-02-21 06:15:00,10.1,3.2,30.27,NE,50,10.4,-999.0,72,0.00,,,0.00,SSEC-RIG,2013-02-21 12:15:00,
2013-02-21 06:20:00,10.3,3.2,30.30,ENE,62,4.7,-999.0,72,0.00,,,0.00,SSEC-RIG,2013-02-21 12:20:00,
2013-02-21 06:25:00,10.6,3.4,30.32,ESE,105,3.1,-999.0,71,0.00,,,0.00,SSEC-RIG,2013-02-21 12:25:00,
2013-02-21 06:30:00,10.8,3.5,30.34,SE,133,4.5,-999.0,71,0.00,,,0.00,SSEC-RIG,2013-02-21 12:30:00,
2013-02-21 06:35:00,10.7,3.4,30.35,SE,127,6.0,-999.0,71,0.00,,,0.00,SSEC-RIG,2013-02-21 12:35:00,
2013-02-21 06:40:00,10.7,3.6,30.33,East,80,9.1,-999.0,72,0.00,,,0.00,SSEC-RIG,2013-02-21 12:40:00,
2013-02-21 06:45:00,10.9,3.5,30.33,ENE,64,7.7,-999.0,70,0.00,,,0.00,SSEC-RIG,2013-02-21 12:45:00,
2013-02-21 06:50:00,10.6,3.4,30.32,ENE,65,7.5,-999.0,71,0.00,,,0.00,SSEC-RIG,2013-02-21 12:50:00,
2013-02-21 06:55:00,10.5,3.4,30.33,ENE,62,7.7,-999.0,71,0.00,,,0.00,SSEC-RIG,2013-02-21 12:55:00,
2013-02-21 07:05:00,10.4,3.5,30.33,ENE,59,10.3,-999.0,72,0.00,,,0.00,SSEC-RIG,2013-02-21 13:05:00,
2013-02-21 07:10:00,10.3,3.6,30.33,ENE,65,8.6,-999.0,73,0.00,,,0.00,SSEC-RIG,2013-02-21 13:10:00,
2013-02-21 07:15:00,10.5,3.9,30.34,ENE,75,5.2,-999.0,73,0.00,,,0.00,SSEC-RIG,2013-02-21 13:15:00,
2013-02-21 07:20:00,10.8,4.0,30.35,ENE,77,4.2,-999.0,73,0.00,,,0.00,SSEC-RIG,2013-02-21 13:20:00,
2013-02-21 07:25:00,10.9,4.1,30.35,ENE,61,4.3,-999.0,73,0.00,,,0.00,SSEC-RIG,2013-02-21 13:25:00,
2013-02-21 07:30:00,10.7,3.9,30.34,ENE,57,9.1,-999.0,73,0.00,,,0.00,SSEC-RIG,2013-02-21 13:30:00,
2013-02-21 07:35:00,10.5,3.8,30.33,NE,49,9.9,-999.0,73,0.00,,,0.00,SSEC-RIG,2013-02-21 13:35:00,
2013-02-21 07:40:00,10.4,3.8,30.33,NE,49,11.3,-999.0,73,0.00,,,0.00,SSEC-RIG,2013-02-21 13:40:00,
2013-02-21 07:45:00,10.2,3.8,30.33,NE,46,11.3,-999.0,74,0.00,,,0.00,SSEC-RIG,2013-02-21 13:45:00,
2013-02-21 07:50:00,10.5,4.1,30.33,NE,49,10.5,-999.0,74,0.00,,,0.00,SSEC-RIG,2013-02-21 13:50:00,
2013-02-21 07:55:00,10.6,4.2,30.34,NE,50,8.7,-999.0,74,0.00,,,0.00,SSEC-RIG,2013-02-21 13:55:00,
2013-02-21 08:00:00,11.0,4.5,30.35,NE,46,6.6,-999.0,73,0.00,,,0.00,SSEC-RIG,2013-02-21 14:00:00,
2013-02-21 08:05:00,10.9,4.6,30.35,ENE,58,6.7,-999.0,74,0.00,,,0.00,SSEC-RIG,2013-02-21 14:05:00,
2013-02-21 08:10:00,10.9,5.0,30.35,ENE,61,8.7,-999.0,76,0.00,,,0.00,SSEC-RIG,2013-02-21 14:10:00,
2013-02-21 08:15:00,11.4,5.7,30.35,ENE,60,6.6,-999.0,76,0.00,,,0.00,SSEC-RIG,2013-02-21 14:15:00,
2013-02-21 08:20:00,11.5,5.6,30.36,ENE,61,8.6,-999.0,75,0.00,,,0.00,SSEC-RIG,2013-02-21 14:20:00,
2013-02-21 08:25:00,11.2,5.6,30.35,ENE,69,10.3,-999.0,77,0.00,,,0.00,SSEC-RIG,2013-02-21 14:25:00,
2013-02-21 08:30:00,11.2,5.5,30.35,ENE,63,9.9,-999.0,76,0.00,,,0.00,SSEC-RIG,2013-02-21 14:30:00,
2013-02-21 08:35:00,11.0,5.5,30.34,ENE,59,10.6,-999.0,77,0.00,,,0.00,SSEC-RIG,2013-02-21 14:35:00,
2013-02-21 08:40:00,11.3,5.7,30.34,ENE,64,10.5,-999.0,77,0.00,,,0.00,SSEC-RIG,2013-02-21 14:40:00,
2013-02-21 08:45:00,11.3,5.7,30.34,NE,56,11.8,-999.0,76,0.00,,,0.00,SSEC-RIG,2013-02-21 14:45:00,
2013-02-21 08:50:00,11.1,5.6,30.33,ENE,59,12.9,16.5,77,0.00,,,0.00,SSEC-RIG,2013-02-21 14:50:00,
2013-02-21 08:55:00,11.3,5.9,30.34,ENE,58,10.2,-999.0,77,0.00,,,0.00,SSEC-RIG,2013-02-21 14:55:00,
2013-02-21 09:00:00,11.5,5.9,30.34,NE,52,10.0,-999.0,77,0.00,,,0.00,SSEC-RIG,2013-02-21 15:00:00,
2013-02-21 09:05:00,11.6,5.9,30.33,NE,55,11.9,-999.0,77,0.00,,,0.00,SSEC-RIG,2013-02-21 15:05:00,
2013-02-21 09:10:00,11.5,6.0,30.33,ENE,58,10.7,-999.0,77,0.00,,,0.00,SSEC-RIG,2013-02-21 15:10:00,
2013-02-21 09:15:00,12.0,6.4,30.33,NE,45,7.3,-999.0,77,0.00,,,0.00,SSEC-RIG,2013-02-21 15:15:00,
2013-02-21 09:25:00,12.4,6.6,30.33,NE,43,8.0,-999.0,76,0.00,,,0.00,SSEC-RIG,2013-02-21 15:25:00,
2013-02-21 09:35:00,12.3,6.5,30.33,NE,43,8.7,-999.0,76,0.00,,,0.00,SSEC-RIG,2013-02-21 15:35:00,
2013-02-21 09:40:00,12.4,6.7,30.33,NE,43,9.8,-999.0,76,0.00,,,0.00,SSEC-RIG,2013-02-21 15:40:00,
2013-02-21 09:45:00,12.7,6.8,30.33,NE,43,8.8,-999.0,76,0.00,,,0.00,SSEC-RIG,2013-02-21 15:45:00,
2013-02-21 09:50:00,12.5,6.7,30.33,NE,44,10.1,-999.0,76,0.00,,,0.00,SSEC-RIG,2013-02-21 15:50:00,
2013-02-21 09:55:00,13.2,7.1,30.33,NE,50,7.1,-999.0,75,0.00,,,0.00,SSEC-RIG,2013-02-21 15:55:00,
2013-02-21 10:00:00,13.1,6.9,30.33,NE,50,6.3,-999.0,75,0.00,,,0.00,SSEC-RIG,2013-02-21 16:00:00,
2013-02-21 10:05:00,13.5,7.3,30.33,ENE,71,6.2,-999.0,75,0.00,,,0.00,SSEC-RIG,2013-02-21 16:05:00,
2013-02-21 10:10:00,13.9,8.3,30.33,East,91,9.9,-999.0,77,0.00,,,0.00,SSEC-RIG,2013-02-21 16:10:00,
2013-02-21 10:15:00,13.3,7.6,30.33,East,87,10.9,-999.0,77,0.00,,,0.00,SSEC-RIG,2013-02-21 16:15:00,
2013-02-21 10:25:00,14.2,9.6,30.33,East,98,8.3,-999.0,81,0.00,,,0.00,SSEC-RIG,2013-02-21 16:25:00,
2013-02-21 10:30:00,14.2,8.4,30.33,East,84,6.1,-999.0,76,0.00,,,0.00,SSEC-RIG,2013-02-21 16:30:00,
2013-02-21 10:35:00,14.4,8.2,30.33,East,91,7.3,-999.0,75,0.00,,,0.00,SSEC-RIG,2013-02-21 16:35:00,
2013-02-21 10:40:00,14.4,8.3,30.32,ENE,69,8.5,-999.0,75,0.00,,,0.00,SSEC-RIG,2013-02-21 16:40:00,
2013-02-21 10:45:00,14.0,8.0,30.33,ENE,76,8.8,-999.0,75,0.00,,,0.00,SSEC-RIG,2013-02-21 16:45:00,
2013-02-21 10:50:00,14.6,8.9,30.33,East,93,7.8,-999.0,77,0.00,,,0.00,SSEC-RIG,2013-02-21 16:50:00,
2013-02-21 10:55:00,15.4,9.0,30.33,ESE,105,4.1,-999.0,75,0.00,,,0.00,SSEC-RIG,2013-02-21 16:55:00,
2013-02-21 11:00:00,15.1,9.5,30.33,East,90,9.9,-999.0,77,0.00,,,0.00,SSEC-RIG,2013-02-21 17:00:00,
2013-02-21 11:05:00,14.7,9.4,30.33,East,81,9.7,-999.0,78,0.00,,,0.00,SSEC-RIG,2013-02-21 17:05:00,
2013-02-21 11:10:00,15.3,9.7,30.32,East,87,7.7,-999.0,77,0.00,,,0.00,SSEC-RIG,2013-02-21 17:10:00,
2013-02-21 11:15:00,15.2,9.8,30.32,East,81,9.3,-999.0,78,0.00,,,0.00,SSEC-RIG,2013-02-21 17:15:00,
2013-02-21 11:20:00,15.1,9.5,30.31,East,85,10.5,-999.0,77,0.00,,,0.00,SSEC-RIG,2013-02-21 17:20:00,
2013-02-21 11:25:00,15.5,9.8,30.31,ENE,76,11.2,-999.0,76,0.00,,,0.00,SSEC-RIG,2013-02-21 17:25:00,
2013-02-21 11:30:00,15.6,9.9,30.31,ENE,78,9.4,-999.0,77,0.00,,,0.00,SSEC-RIG,2013-02-21 17:30:00,
2013-02-21 11:35:00,16.2,10.2,30.30,East,100,7.9,-999.0,76,0.00,,,0.00,SSEC-RIG,2013-02-21 17:35:00,
2013-02-21 11:40:00,16.3,10.9,30.30,East,85,8.0,-999.0,78,0.00,,,0.00,SSEC-RIG,2013-02-21 17:40:00,
2013-02-21 11:45:00,16.6,10.1,30.29,ENE,68,8.7,-999.0,74,0.00,,,0.00,SSEC-RIG,2013-02-21 17:45:00,
2013-02-21 11:50:00,16.6,10.3,30.29,East,79,9.4,-999.0,75,0.00,,,0.00,SSEC-RIG,2013-02-21 17:50:00,
2013-02-21 11:55:00,17.2,10.8,30.28,NE,54,7.2,-999.0,74,0.00,,,0.00,SSEC-RIG,2013-02-21 17:55:00,
2013-02-21 12:00:00,17.1,10.9,30.28,ENE,61,7.9,-999.0,75,0.00,,,0.00,SSEC-RIG,2013-02-21 18:00:00,
2013-02-21 12:05:00,16.7,10.9,30.27,NE,54,11.8,-999.0,76,0.00,,,0.00,SSEC-RIG,2013-02-21 18:05:00,
2013-02-21 12:10:00,16.6,11.5,30.28,NE,53,9.8,-999.0,79,0.00,,,0.00,SSEC-RIG,2013-02-21 18:10:00,
2013-02-21 12:15:00,16.8,12.0,30.28,NE,49,7.1,-999.0,80,0.00,,,0.00,SSEC-RIG,2013-02-21 18:15:00,
2013-02-21 12:20:00,17.0,12.6,30.27,NE,45,7.7,-999.0,82,0.00,,,0.00,SSEC-RIG,2013-02-21 18:20:00,
2013-02-21 12:25:00,17.1,12.7,30.27,NE,42,7.8,-999.0,81,0.00,,,0.00,SSEC-RIG,2013-02-21 18:25:00,
2013-02-21 12:30:00,17.1,13.0,30.27,NNE,31,7.2,-999.0,83,0.00,,,0.00,SSEC-RIG,2013-02-21 18:30:00,
2013-02-21 12:35:00,17.0,13.0,30.27,NE,41,7.9,-999.0,83,0.00,,,0.00,SSEC-RIG,2013-02-21 18:35:00,
2013-02-21 12:40:00,17.0,13.0,30.26,NE,40,8.5,-999.0,83,0.00,,,0.00,SSEC-RIG,2013-02-21 18:40:00,
2013-02-21 12:45:00,17.2,13.4,30.26,NE,39,8.3,-999.0,84,0.00,,,0.00,SSEC-RIG,2013-02-21 18:45:00,
2013-02-21 12:50:00,17.3,13.5,30.25,NNE,32,9.2,-999.0,84,0.00,,,0.00,SSEC-RIG,2013-02-21 18:50:00,
2013-02-21 12:55:00,17.3,13.6,30.25,NNE,33,8.3,-999.0,84,0.00,,,0.00,SSEC-RIG,2013-02-21 18:55:00,
2013-02-21 13:00:00,17.3,13.8,30.24,NE,42,11.5,-999.0,85,0.00,,,0.00,SSEC-RIG,2013-02-21 19:00:00,
2013-02-21 13:05:00,17.4,14.3,30.24,NE,38,9.4,-999.0,86,0.00,,,0.00,SSEC-RIG,2013-02-21 19:05:00,
2013-02-21 13:10:00,17.8,14.7,30.23,NNE,32,7.9,-999.0,86,0.00,,,0.00,SSEC-RIG,2013-02-21 19:10:00,
2013-02-21 13:15:00,18.0,14.6,30.23,NNE,31,7.0,-999.0,85,0.00,,,0.00,SSEC-RIG,2013-02-21 19:15:00,
2013-02-21 13:20:00,17.8,14.5,30.23,NE,38,8.8,-999.0,85,0.00,,,0.00,SSEC-RIG,2013-02-21 19:20:00,
2013-02-21 13:25:00,18.0,14.7,30.23,NE,42,10.5,-999.0,86,0.00,,,0.00,SSEC-RIG,2013-02-21 19:25:00,
2013-02-21 13:30:00,18.0,14.9,30.22,NE,38,8.7,-999.0,86,0.00,,,0.00,SSEC-RIG,2013-02-21 19:30:00,
2013-02-21 13:35:00,18.1,15.0,30.22,NNE,33,8.6,-999.0,86,0.00,,,0.00,SSEC-RIG,2013-02-21 19:35:00,
2013-02-21 13:40:00,18.3,15.2,30.21,NE,38,7.9,-999.0,87,0.00,,,0.00,SSEC-RIG,2013-02-21 19:40:00,
2013-02-21 13:45:00,18.3,15.3,30.21,NE,37,9.1,-999.0,87,0.00,,,0.00,SSEC-RIG,2013-02-21 19:45:00,
2013-02-21 13:50:00,18.5,15.6,30.21,NNE,32,5.9,-999.0,87,0.00,,,0.00,SSEC-RIG,2013-02-21 19:50:00,
2013-02-21 13:55:00,18.5,15.4,30.21,NE,36,8.7,-999.0,86,0.00,,,0.00,SSEC-RIG,2013-02-21 19:55:00,
2013-02-21 14:00:00,18.2,15.2,30.20,NE,44,11.8,-999.0,87,0.00,,,0.00,SSEC-RIG,2013-02-21 20:00:00,
2013-02-21 14:05:00,18.6,15.5,30.21,NE,38,8.8,-999.0,86,0.00,,,0.00,SSEC-RIG,2013-02-21 20:05:00,
2013-02-21 14:10:00,18.7,15.4,30.21,NE,36,7.7,-999.0,86,0.00,,,0.00,SSEC-RIG,2013-02-21 20:10:00,
2013-02-21 14:15:00,18.6,15.3,30.21,NE,35,8.9,-999.0,86,0.00,,,0.00,SSEC-RIG,2013-02-21 20:15:00,
2013-02-21 14:20:00,18.9,15.7,30.20,NE,40,10.5,-999.0,86,0.00,,,0.00,SSEC-RIG,2013-02-21 20:20:00,
2013-02-21 14:25:00,18.8,15.8,30.20,NE,50,12.6,17.1,87,0.00,,,0.00,SSEC-RIG,2013-02-21 20:25:00,
2013-02-21 14:30:00,19.1,16.1,30.20,ENE,58,10.6,-999.0,87,0.00,,,0.00,SSEC-RIG,2013-02-21 20:30:00,
2013-02-21 14:35:00,19.1,16.2,30.21,NE,50,8.6,-999.0,87,0.00,,,0.00,SSEC-RIG,2013-02-21 20:35:00,
2013-02-21 14:40:00,19.1,16.2,30.21,NE,46,9.6,-999.0,87,0.00,,,0.00,SSEC-RIG,2013-02-21 20:40:00,
2013-02-21 14:45:00,19.3,16.4,30.21,NE,48,10.7,-999.0,87,0.00,,,0.00,SSEC-RIG,2013-02-21 20:45:00,
2013-02-21 14:50:00,19.6,16.5,30.21,NE,41,8.9,-999.0,87,0.00,,,0.00,SSEC-RIG,2013-02-21 20:50:00,
2013-02-21 14:55:00,19.5,16.5,30.20,NE,42,12.2,-999.0,87,0.00,,,0.00,SSEC-RIG,2013-02-21 20:55:00,
2013-02-21 15:00:00,19.5,16.7,30.20,NE,43,11.4,16.6,87,0.00,,,0.00,SSEC-RIG,2013-02-21 21:00:00,
2013-02-21 15:05:00,19.4,16.6,30.20,NE,44,15.1,17.9,87,0.00,,,0.00,SSEC-RIG,2013-02-21 21:05:00,
2013-02-21 15:10:00,19.3,16.7,30.20,NE,45,15.4,17.5,88,0.00,,,0.00,SSEC-RIG,2013-02-21 21:10:00,
2013-02-21 15:15:00,19.4,16.8,30.20,NE,46,14.4,17.3,88,0.00,,,0.00,SSEC-RIG,2013-02-21 21:15:00,
2013-02-21 15:20:00,19.4,16.8,30.20,NE,47,16.5,19.8,88,0.00,,,0.00,SSEC-RIG,2013-02-21 21:20:00,
2013-02-21 15:25:00,19.6,17.0,30.19,NE,55,13.5,18.1,88,0.00,,,0.00,SSEC-RIG,2013-02-21 21:25:00,
2013-02-21 15:30:00,19.7,17.2,30.19,NE,51,12.1,17.5,89,0.00,,,0.00,SSEC-RIG,2013-02-21 21:30:00,
2013-02-21 15:35:00,19.8,17.2,30.19,ENE,57,15.8,20.0,89,0.00,,,0.00,SSEC-RIG,2013-02-21 21:35:00,
2013-02-21 15:40:00,19.8,17.3,30.19,NE,53,15.7,22.2,89,0.00,,,0.00,SSEC-RIG,2013-02-21 21:40:00,
2013-02-21 15:45:00,19.7,17.3,30.19,ENE,58,14.5,19.8,89,0.00,,,0.00,SSEC-RIG,2013-02-21 21:45:00,
2013-02-21 15:50:00,19.9,17.6,30.19,ENE,57,10.3,-999.0,89,0.00,,,0.00,SSEC-RIG,2013-02-21 21:50:00,
2013-02-21 15:55:00,20.0,17.8,30.19,ENE,63,12.8,20.4,90,0.00,,,0.00,SSEC-RIG,2013-02-21 21:55:00,
2013-02-21 16:00:00,20.2,17.9,30.19,ENE,60,12.1,17.1,89,0.00,,,0.00,SSEC-RIG,2013-02-21 22:00:00,
2013-02-21 16:05:00,20.2,17.9,30.18,NE,53,11.9,-999.0,90,0.00,,,0.00,SSEC-RIG,2013-02-21 22:05:00,
2013-02-21 16:10:00,20.2,18.0,30.18,NE,55,11.5,17.1,90,0.00,,,0.00,SSEC-RIG,2013-02-21 22:10:00,
2013-02-21 16:15:00,20.2,18.1,30.18,NE,56,15.0,21.5,90,0.00,,,0.00,SSEC-RIG,2013-02-21 22:15:00,
2013-02-21 16:20:00,20.1,18.2,30.17,ENE,61,19.6,24.6,91,0.00,,,0.00,SSEC-RIG,2013-02-21 22:20:00,
2013-02-21 16:25:00,20.2,18.3,30.18,ENE,58,16.6,19.8,91,0.00,,,0.00,SSEC-RIG,2013-02-21 22:25:00,
2013-02-21 16:30:00,20.3,18.6,30.18,ENE,57,14.3,20.3,92,0.00,,,0.00,SSEC-RIG,2013-02-21 22:30:00,
2013-02-21 16:35:00,20.3,18.6,30.17,ENE,60,14.8,17.9,92,0.00,,,0.00,SSEC-RIG,2013-02-21 22:35:00,
2013-02-21 16:40:00,20.3,18.7,30.17,ENE,61,17.7,22.3,92,0.00,,,0.00,SSEC-RIG,2013-02-21 22:40:00,
2013-02-21 16:50:00,20.4,18.9,30.17,ENE,60,15.2,19.6,93,0.00,,,0.00,SSEC-RIG,2013-02-21 22:50:00,
2013-02-21 16:55:00,20.4,19.0,30.16,ENE,62,15.9,19.6,93,0.00,,,0.00,SSEC-RIG,2013-02-21 22:55:00,
2013-02-21 17:00:00,20.4,19.1,30.15,ENE,62,18.2,21.4,93,0.00,,,0.00,SSEC-RIG,2013-02-21 23:00:00,
2013-02-21 17:05:00,20.5,19.2,30.15,ENE,65,15.6,23.1,94,0.00,,,0.00,SSEC-RIG,2013-02-21 23:05:00,
2013-02-21 17:10:00,20.5,19.3,30.14,ENE,62,18.2,21.4,94,0.00,,,0.00,SSEC-RIG,2013-02-21 23:10:00,
2013-02-21 17:15:00,20.7,19.4,30.14,ENE,59,16.3,21.2,94,0.00,,,0.00,SSEC-RIG,2013-02-21 23:15:00,
2013-02-21 17:20:00,20.7,19.4,30.13,ENE,59,17.4,21.1,94,0.00,,,0.00,SSEC-RIG,2013-02-21 23:20:00,
2013-02-21 17:25:00,20.8,19.6,30.13,ENE,60,16.7,22.1,94,0.00,,,0.00,SSEC-RIG,2013-02-21 23:25:00,
2013-02-21 17:30:00,20.9,19.7,30.13,ENE,60,16.1,20.4,94,0.00,,,0.00,SSEC-RIG,2013-02-21 23:30:00,
2013-02-21 17:35:00,21.0,19.8,30.13,ENE,58,15.4,19.8,94,0.00,,,0.00,SSEC-RIG,2013-02-21 23:35:00,
2013-02-21 17:40:00,21.1,19.9,30.13,ENE,58,17.1,22.8,94,0.00,,,0.00,SSEC-RIG,2013-02-21 23:40:00,
2013-02-21 17:45:00,21.2,20.0,30.12,ENE,59,18.4,22.5,94,0.00,,,0.00,SSEC-RIG,2013-02-21 23:45:00,
2013-02-21 17:50:00,21.3,20.0,30.13,ENE,62,15.4,20.5,94,0.00,,,0.00,SSEC-RIG,2013-02-21 23:50:00,
2013-02-21 17:55:00,21.4,20.2,30.13,ENE,59,14.1,19.5,94,0.00,,,0.00,SSEC-RIG,2013-02-21 23:55:00,
2013-02-21 18:00:00,21.6,20.4,30.13,ENE,62,17.5,22.2,94,0.00,,,0.00,SSEC-RIG,2013-02-22 00:00:00,
2013-02-21 18:05:00,21.7,20.4,30.13,ENE,59,17.1,21.7,94,0.00,,,0.00,SSEC-RIG,2013-02-22 00:05:00,
2013-02-21 18:10:00,21.9,20.6,30.12,ENE,67,14.1,22.7,94,0.00,,,0.00,SSEC-RIG,2013-02-22 00:10:00,
2013-02-21 18:15:00,22.1,20.8,30.12,ENE,69,12.4,18.3,94,0.00,,,0.00,SSEC-RIG,2013-02-22 00:15:00,
2013-02-21 18:25:00,22.2,21.0,30.12,ENE,74,15.9,22.1,94,0.00,,,0.00,SSEC-RIG,2013-02-22 00:25:00,
2013-02-21 18:30:00,22.2,21.0,30.11,ENE,68,18.7,25.0,94,0.00,,,0.00,SSEC-RIG,2013-02-22 00:30:00,
2013-02-21 18:35:00,22.3,21.1,30.11,ENE,66,13.4,22.7,94,0.00,,,0.00,SSEC-RIG,2013-02-22 00:35:00,
2013-02-21 18:40:00,22.4,21.2,30.10,ENE,66,15.3,23.6,94,0.00,,,0.00,SSEC-RIG,2013-02-22 00:40:00,
2013-02-21 18:45:00,22.6,21.4,30.10,ENE,72,12.1,18.5,94,0.00,,,0.00,SSEC-RIG,2013-02-22 00:45:00,
2013-02-21 18:50:00,22.8,21.6,30.10,ENE,75,11.6,19.8,94,0.00,,,0.00,SSEC-RIG,2013-02-22 00:50:00,
2013-02-21 18:55:00,23.0,21.9,30.10,ENE,75,12.4,18.6,94,0.00,,,0.00,SSEC-RIG,2013-02-22 00:55:00,
2013-02-21 19:00:00,23.4,22.3,30.10,East,90,13.6,18.9,95,0.00,,,0.00,SSEC-RIG,2013-02-22 01:00:00,
2013-02-21 19:05:00,24.0,23.1,30.11,East,94,14.9,23.2,95,0.00,,,0.00,SSEC-RIG,2013-02-22 01:05:00,
2013-02-21 19:10:00,23.9,23.0,30.11,East,93,14.1,19.3,95,0.00,,,0.00,SSEC-RIG,2013-02-22 01:10:00,
2013-02-21 19:15:00,24.1,23.1,30.10,East,94,15.6,23.7,95,0.00,,,0.00,SSEC-RIG,2013-02-22 01:15:00,
2013-02-21 19:20:00,24.1,22.9,30.09,East,98,19.5,28.1,94,0.00,,,0.00,SSEC-RIG,2013-02-22 01:20:00,
2013-02-21 19:25:00,24.1,22.8,30.08,East,89,18.4,30.3,93,0.00,,,0.00,SSEC-RIG,2013-02-22 01:25:00,
2013-02-21 19:30:00,24.1,22.6,30.08,East,94,22.3,33.2,93,0.00,,,0.00,SSEC-RIG,2013-02-22 01:30:00,
2013-02-21 19:35:00,24.0,22.4,30.07,East,95,21.0,29.8,92,0.00,,,0.00,SSEC-RIG,2013-02-22 01:35:00,
2013-02-21 19:40:00,24.0,22.3,30.07,East,89,20.1,28.4,92,0.00,,,0.00,SSEC-RIG,2013-02-22 01:40:00,
2013-02-21 19:45:00,23.9,22.1,30.06,East,86,19.7,30.9,91,0.00,,,0.00,SSEC-RIG,2013-02-22 01:45:00,
2013-02-21 19:50:00,23.6,21.5,30.04,East,86,24.1,31.2,90,0.00,,,0.00,SSEC-RIG,2013-02-22 01:50:00,
2013-02-21 19:55:00,23.5,21.3,30.04,East,81,23.1,31.9,90,0.00,,,0.00,SSEC-RIG,2013-02-22 01:55:00,
2013-02-21 20:00:00,23.6,21.4,30.04,East,85,21.1,30.1,90,0.00,,,0.00,SSEC-RIG,2013-02-22 02:00:00,
2013-02-21 20:05:00,23.7,21.6,30.04,East,85,19.3,28.7,90,0.00,,,0.00,SSEC-RIG,2013-02-22 02:05:00,
2013-02-21 20:10:00,23.6,21.4,30.04,East,81,21.4,27.8,90,0.00,,,0.00,SSEC-RIG,2013-02-22 02:10:00,
2013-02-21 20:15:00,23.7,21.3,30.04,East,82,18.2,28.7,89,0.00,,,0.00,SSEC-RIG,2013-02-22 02:15:00,
2013-02-21 20:20:00,23.8,21.3,30.04,East,84,20.4,25.4,89,0.00,,,0.00,SSEC-RIG,2013-02-22 02:20:00,
2013-02-21 20:30:00,24.1,21.8,30.05,East,85,15.9,27.4,90,0.00,,,0.00,SSEC-RIG,2013-02-22 02:30:00,
2013-02-21 20:40:00,24.0,21.3,30.05,East,85,16.7,22.5,88,0.00,,,0.00,SSEC-RIG,2013-02-22 02:40:00,
2013-02-21 20:45:00,24.1,21.2,30.05,ENE,78,14.4,22.1,88,0.00,,,0.00,SSEC-RIG,2013-02-22 02:45:00,
2013-02-21 20:50:00,24.2,21.3,30.04,East,85,15.2,22.4,87,0.00,,,0.00,SSEC-RIG,2013-02-22 02:50:00,
2013-02-21 20:55:00,24.5,21.8,30.05,East,93,13.2,18.6,89,0.00,,,0.00,SSEC-RIG,2013-02-22 02:55:00,
2013-02-21 21:00:00,24.4,21.7,30.05,East,88,14.8,20.7,88,0.00,,,0.00,SSEC-RIG,2013-02-22 03:00:00,
2013-02-21 21:05:00,24.3,21.3,30.04,East,89,15.3,20.7,87,0.00,,,0.00,SSEC-RIG,2013-02-22 03:05:00,
2013-02-21 21:10:00,24.3,21.2,30.03,East,80,16.2,20.8,87,0.00,,,0.00,SSEC-RIG,2013-02-22 03:10:00,
2013-02-21 21:15:00,24.4,21.2,30.03,East,83,16.1,23.3,87,0.00,,,0.00,SSEC-RIG,2013-02-22 03:15:00,
2013-02-21 21:20:00,24.3,21.1,30.02,East,87,17.4,23.9,86,0.00,,,0.00,SSEC-RIG,2013-02-22 03:20:00,
2013-02-21 21:25:00,24.4,21.3,30.01,East,86,19.2,25.7,87,0.00,,,0.00,SSEC-RIG,2013-02-22 03:25:00,
2013-02-21 21:30:00,24.5,21.3,30.00,East,92,21.9,31.7,87,0.00,,,0.00,SSEC-RIG,2013-02-22 03:30:00,
2013-02-21 21:35:00,24.6,21.6,30.01,East,89,17.9,23.0,87,0.00,,,0.00,SSEC-RIG,2013-02-22 03:35:00,
2013-02-21 21:40:00,24.6,21.3,30.01,East,99,16.2,24.2,86,0.00,,,0.00,SSEC-RIG,2013-02-22 03:40:00,
2013-02-21 21:45:00,24.7,21.3,30.01,East,93,13.7,20.7,85,0.00,,,0.00,SSEC-RIG,2013-02-22 03:45:00,
2013-02-21 21:50:00,24.8,21.5,30.01,East,93,15.7,23.7,86,0.00,,,0.00,SSEC-RIG,2013-02-22 03:50:00,
2013-02-21 21:55:00,24.7,21.1,30.01,East,97,17.8,29.2,85,0.00,,,0.00,SSEC-RIG,2013-02-22 03:55:00,
2013-02-21 22:00:00,24.8,20.7,30.01,East,100,15.9,24.0,83,0.00,,,0.00,SSEC-RIG,2013-02-22 04:00:00,
2013-02-21 22:05:00,24.9,20.9,30.01,East,95,15.5,27.0,83,0.00,,,0.00,SSEC-RIG,2013-02-22 04:05:00,
2013-02-21 22:10:00,24.8,20.4,30.01,East,96,19.5,25.0,82,0.00,,,0.00,SSEC-RIG,2013-02-22 04:10:00,
2013-02-21 22:15:00,24.8,20.4,30.01,East,101,14.4,20.8,82,0.00,,,0.00,SSEC-RIG,2013-02-22 04:15:00,
2013-02-21 22:20:00,25.0,20.9,30.01,East,95,15.3,22.0,83,0.00,,,0.00,SSEC-RIG,2013-02-22 04:20:00,
2013-02-21 22:25:00,24.8,20.5,30.01,East,98,20.7,27.1,82,0.00,,,0.00,SSEC-RIG,2013-02-22 04:25:00,
2013-02-21 22:30:00,24.7,20.2,30.01,East,94,14.7,21.9,82,0.00,,,0.00,SSEC-RIG,2013-02-22 04:30:00,
2013-02-21 22:35:00,24.7,20.3,30.01,East,98,14.6,22.1,82,0.00,,,0.00,SSEC-RIG,2013-02-22 04:35:00,
2013-02-21 22:40:00,24.7,20.2,30.01,ESE,105,15.9,23.6,82,0.00,,,0.00,SSEC-RIG,2013-02-22 04:40:00,
2013-02-21 22:45:00,24.6,20.1,30.01,ESE,103,15.6,21.7,82,0.00,,,0.00,SSEC-RIG,2013-02-22 04:45:00,
2013-02-21 22:50:00,24.5,20.3,30.01,ESE,102,16.8,24.0,83,0.00,,,0.00,SSEC-RIG,2013-02-22 04:50:00,
2013-02-21 22:55:00,24.5,20.5,30.01,East,101,14.8,19.2,84,0.00,,,0.00,SSEC-RIG,2013-02-22 04:55:00,
2013-02-21 23:05:00,24.5,21.1,30.01,East,101,12.6,17.5,86,0.00,,,0.00,SSEC-RIG,2013-02-22 05:05:00,
2013-02-21 23:10:00,24.6,21.9,30.01,East,100,13.3,16.6,88,0.00,,,0.00,SSEC-RIG,2013-02-22 05:10:00,
2013-02-21 23:15:00,24.2,21.8,30.00,East,96,15.2,19.5,89,0.00,,,0.00,SSEC-RIG,2013-02-22 05:15:00,
2013-02-21 23:20:00,24.0,22.1,30.00,East,97,12.6,17.7,91,0.00,,,0.00,SSEC-RIG,2013-02-22 05:20:00,
2013-02-21 23:25:00,23.8,22.1,30.00,East,91,12.2,16.4,92,0.00,,,0.00,SSEC-RIG,2013-02-22 05:25:00,
2013-02-21 23:30:00,23.6,21.9,29.99,East,90,12.0,16.8,92,0.00,,,0.00,SSEC-RIG,2013-02-22 05:30:00,
2013-02-21 23:35:00,23.8,22.1,29.99,East,91,12.7,16.1,92,0.00,,,0.00,SSEC-RIG,2013-02-22 05:35:00,
2013-02-21 23:40:00,23.6,21.7,29.99,East,95,9.0,-999.0,91,0.00,,,0.00,SSEC-RIG,2013-02-22 05:40:00,
2013-02-21 23:45:00,23.8,21.7,29.99,East,96,9.5,-999.0,90,0.00,,,0.00,SSEC-RIG,2013-02-22 05:45:00,
2013-02-21 23:50:00,23.9,21.9,29.99,East,96,12.8,17.1,91,0.00,,,0.00,SSEC-RIG,2013-02-22 05:50:00,
2013-02-21 23:55:00,23.8,21.8,29.98,East,89,13.4,17.8,91,0.00,,,0.00,SSEC-RIG,2013-02-22 05:55:00,